Time,TemperatureF,DewpointF,PressureIn,WindDirection,WindDirectionDegrees,WindSpeedMPH,WindSpeedGustMPH,Humidity,HourlyPrecipIn,Conditions,Clouds,dailyrainin,SoftwareType,DateUTC
2013-02-17 00:00:00,11.9,2.8,29.89,NE,45,0.0,0.0,66,0.00,,,0.00,WUHU21623XXSP,2013-02-17 05:00:00,
2013-02-17 00:05:00,12.1,3.0,29.89,NE,45,0.0,0.0,66,0.00,,,0.00,WUHU21623XXSP,2013-02-17 05:05:00,
2013-02-17 00:10:00,12.3,3.2,29.89,NE,45,0.0,0.0,66,0.00,,,0.00,WUHU21623XXSP,2013-02-17 05:10:00,
2013-02-17 00:15:00,12.3,3.2,29.89,NE,45,0.0,0.0,66,0.00,,,0.00,WUHU21623XXSP,2013-02-17 05:15:00,
2013-02-17 00:20:00,12.3,3.2,29.89,NE,45,0.0,0.0,66,0.00,,,0.00,WUHU21623XXSP,2013-02-17 05:20:00,
2013-02-17 00:25:00,12.3,3.2,29.89,NE,45,0.0,0.0,66,0.00,,,0.00,WUHU21623XXSP,2013-02-17 05:25:00,
2013-02-17 00:30:00,11.9,2.8,29.89,NE,45,0.0,0.0,66,0.00,,,0.00,WUHU21623XXSP,2013-02-17 05:30:00,
2013-02-17 00:35:00,11.6,2.5,29.89,NE,45,0.0,0.0,66,0.00,,,0.00,WUHU21623XXSP,2013-02-17 05:35:00,
2013-02-17 00:40:00,11.0,1.9,29.89,NE,45,0.0,0.0,66,0.00,,,0.00,WUHU21623XXSP,2013-02-17 05:40:00,
2013-02-17 00:45:00,10.8,1.7,29.89,NE,45,0.0,0.0,66,0.00,,,0.00,WUHU21623XXSP,2013-02-17 05:45:00,
2013-02-17 00:50:00,10.5,1.4,29.88,NE,45,2.8,3.1,66,0.00,,,0.00,WUHU21623XXSP,2013-02-17 05:50:00,
2013-02-17 00:55:00,10.3,1.6,29.88,NE,45,1.4,3.1,67,0.00,,,0.00,WUHU21623XXSP,2013-02-17 05:55:00,
2013-02-17 01:00:00,10.1,1.4,29.88,NE,45,0.0,2.7,67,0.00,,,0.00,WUHU21623XXSP,2013-02-17 06:00:00,
2013-02-17 01:05:00,9.9,1.2,29.88,NE,45,3.1,3.4,67,0.00,,,0.00,WUHU21623XXSP,2013-02-17 06:05:00,
2013-02-17 01:10:00,9.8,1.4,29.88,NE,45,2.5,3.4,68,0.00,,,0.00,WUHU21623XXSP,2013-02-17 06:10:00,
2013-02-17 01:15:00,9.8,1.4,29.88,NE,45,2.3,3.1,68,0.00,,,0.00,WUHU21623XXSP,2013-02-17 06:15:00,
2013-02-17 01:20:00,9.9,1.5,29.88,NE,45,1.2,3.1,68,0.00,,,0.00,WUHU21623XXSP,2013-02-17 06:20:00,
2013-02-17 01:25:00,10.1,2.0,29.88,NE,45,0.0,2.2,69,0.00,,,0.00,WUHU21623XXSP,2013-02-17 06:25:00,
2013-02-17 01:30:00,10.3,1.9,29.88,NE,45,0.0,1.3,68,0.00,,,0.00,WUHU21623XXSP,2013-02-17 06:30:00,
2013-02-17 01:35:00,10.1,1.7,29.88,NE,45,0.0,0.0,68,0.00,,,0.00,WUHU21623XXSP,2013-02-17 06:35:00,
2013-02-17 01:40:00,10.1,1.7,29.88,NE,45,0.0,0.0,68,0.00,,,0.00,WUHU21623XXSP,2013-02-17 06:40:00,
2013-02-17 01:45:00,10.5,2.4,29.88,NE,45,0.0,0.0,69,0.00,,,0.00,WUHU21623XXSP,2013-02-17 06:45:00,
2013-02-17 01:50:00,10.7,2.6,29.87,NE,45,0.0,0.0,69,0.00,,,0.00,WUHU21623XXSP,2013-02-17 06:50:00,
2013-02-17 01:55:00,11.0,2.9,29.87,NE,45,0.0,0.0,69,0.00,,,0.00,WUHU21623XXSP,2013-02-17 06:55:00,
2013-02-17 02:00:00,11.0,2.9,29.87,NE,45,0.0,0.0,69,0.00,,,0.00,WUHU21623XXSP,2013-02-17 07:00:00,
2013-02-17 02:05:00,11.0,2.9,29.87,NE,45,0.0,0.0,69,0.00,,,0.00,WUHU21623XXSP,2013-02-17 07:05:00,
2013-02-17 02:10:00,11.0,2.6,29.87,NE,45,0.0,0.0,68,0.00,,,0.00,WUHU21623XXSP,2013-02-17 07:10:00,
2013-02-17 02:15:00,10.8,2.4,29.87,NE,45,0.0,0.0,68,0.00,,,0.00,WUHU21623XXSP,2013-02-17 07:15:00,
2013-02-17 02:20:00,10.5,2.1,29.87,NE,45,0.0,0.0,68,0.00,,,0.00,WUHU21623XXSP,2013-02-17 07:20:00,
2013-02-17 02:25:00,10.3,1.9,29.87,NE,45,0.0,0.0,68,0.00,,,0.00,WUHU21623XXSP,2013-02-17 07:25:00,
2013-02-17 02:30:00,10.1,1.7,29.87,NE,45,0.0,0.0,68,0.00,,,0.00,WUHU21623XXSP,2013-02-17 07:30:00,
2013-02-17 02:35:00,9.8,1.4,29.87,NE,45,0.0,0.0,68,0.00,,,0.00,WUHU21623XXSP,2013-02-17 07:35:00,
2013-02-17 02:40:00,9.9,1.8,29.87,NE,45,0.0,0.0,69,0.00,,,0.00,WUHU21623XXSP,2013-02-17 07:40:00,
2013-02-17 02:45:00,10.1,2.0,29.87,NE,45,0.0,0.0,69,0.00,,,0.00,WUHU21623XXSP,2013-02-17 07:45:00,
2013-02-17 02:50:00,10.3,2.2,29.86,NE,45,0.0,0.0,69,0.00,,,0.00,WUHU21623XXSP,2013-02-17 07:50:00,
2013-02-17 02:55:00,10.5,2.4,29.87,NE,45,0.0,0.0,69,0.00,,,0.00,WUHU21623XXSP,2013-02-17 07:55:00,
2013-02-17 03:00:00,10.7,2.9,29.87,NE,45,0.0,0.0,70,0.00,,,0.00,WUHU21623XXSP,2013-02-17 08:00:00,
2013-02-17 03:05:00,10.8,3.0,29.87,NE,45,0.0,0.0,70,0.00,,,0.00,WUHU21623XXSP,2013-02-17 08:05:00,
2013-02-17 03:10:00,11.0,3.2,29.87,NE,45,0.0,0.0,70,0.00,,,0.00,WUHU21623XXSP,2013-02-17 08:10:00,
2013-02-17 03:15:00,11.0,3.2,29.87,NE,45,0.0,0.0,70,0.00,,,0.00,WUHU21623XXSP,2013-02-17 08:15:00,
2013-02-17 03:20:00,11.0,3.2,29.87,NE,45,2.5,2.7,70,0.00,,,0.00,WUHU21623XXSP,2013-02-17 08:20:00,
2013-02-17 03:25:00,11.2,3.4,29.87,NE,45,2.1,2.9,70,0.00,,,0.00,WUHU21623XXSP,2013-02-17 08:25:00,
2013-02-17 03:30:00,11.6,3.8,29.87,NE,45,1.7,3.4,70,0.00,,,0.00,WUHU21623XXSP,2013-02-17 08:30:00,
2013-02-17 03:35:00,11.7,3.8,29.87,NE,45,0.0,3.4,70,0.00,,,0.00,WUHU21623XXSP,2013-02-17 08:35:00,
2013-02-17 03:40:00,11.9,4.0,29.86,NE,45,0.0,0.0,70,0.00,,,0.00,WUHU21623XXSP,2013-02-17 08:40:00,
2013-02-17 03:45:00,12.1,4.2,29.86,NE,45,0.0,0.0,70,0.00,,,0.00,WUHU21623XXSP,2013-02-17 08:45:00,
2013-02-17 03:50:00,12.1,4.2,29.86,NE,45,0.0,0.0,70,0.00,,,0.00,WUHU21623XXSP,2013-02-17 08:50:00,
2013-02-17 03:55:00,12.3,4.4,29.87,NE,45,0.0,0.0,70,0.00,,,0.00,WUHU21623XXSP,2013-02-17 08:55:00,
2013-02-17 04:01:00,12.3,4.4,29.87,NE,45,0.0,0.0,70,0.00,,,0.00,WUHU21623XXSP,2013-02-17 09:01:00,
2013-02-17 04:06:00,12.3,4.4,29.87,NE,45,0.0,0.0,70,0.00,,,0.00,WUHU21623XXSP,2013-02-17 09:06:00,
2013-02-17 04:11:00,12.3,4.4,29.87,NE,45,0.0,0.0,70,0.00,,,0.00,WUHU21623XXSP,2013-02-17 09:11:00,
2013-02-17 04:16:00,12.3,4.4,29.87,NNE,22,1.8,2.7,70,0.00,,,0.00,WUHU21623XXSP,2013-02-17 09:16:00,
2013-02-17 04:21:00,12.5,4.6,29.87,NNE,22,0.9,2.7,70,0.00,,,0.00,WUHU21623XXSP,2013-02-17 09:21:00,
2013-02-17 04:26:00,12.5,4.6,29.87,NNE,22,0.0,2.7,70,0.00,,,0.00,WUHU21623XXSP,2013-02-17 09:26:00,
2013-02-17 04:31:00,12.6,4.7,29.87,NNW,337,2.2,4.9,70,0.00,,,0.00,WUHU21623XXSP,2013-02-17 09:31:00,
2013-02-17 04:36:00,12.6,4.7,29.87,NNE,22,2.9,4.9,70,0.00,,,0.00,WUHU21623XXSP,2013-02-17 09:36:00,
2013-02-17 04:41:00,12.8,4.6,29.87,NNW,337,4.3,4.3,69,0.00,,,0.00,WUHU21623XXSP,2013-02-17 09:41:00,
2013-02-17 04:46:00,13.2,5.0,29.88,NNW,347,3.0,6.3,69,0.00,,,0.00,WUHU21623XXSP,2013-02-17 09:46:00,
2013-02-17 04:51:00,13.2,5.0,29.87,North,0,1.6,6.3,69,0.00,,,0.00,WUHU21623XXSP,2013-02-17 09:51:00,
2013-02-17 04:56:00,13.2,4.7,29.87,North,358,2.1,5.1,68,0.00,,,0.00,WUHU21623XXSP,2013-02-17 09:56:00,
2013-02-17 05:01:00,13.2,4.7,29.88,North,0,2.7,5.1,68,0.00,,,0.00,WUHU21623XXSP,2013-02-17 10:01:00,
2013-02-17 05:06:00,13.0,4.1,29.88,North,0,4.0,4.3,67,0.00,,,0.00,WUHU21623XXSP,2013-02-17 10:06:00,
2013-02-17 05:11:00,13.0,4.1,29.87,NNE,19,4.2,5.4,67,0.00,,,0.00,WUHU21623XXSP,2013-02-17 10:11:00,
2013-02-17 05:16:00,12.8,4.0,29.88,NNE,22,2.3,5.4,67,0.00,,,0.00,WUHU21623XXSP,2013-02-17 10:16:00,
2013-02-17 05:21:00,12.8,3.6,29.88,NNE,19,3.5,6.5,66,0.00,,,0.00,WUHU21623XXSP,2013-02-17 10:21:00,
2013-02-17 05:26:00,12.8,3.6,29.88,NNE,22,5.8,6.5,66,0.00,,,0.00,WUHU21623XXSP,2013-02-17 10:26:00,
2013-02-17 05:31:00,12.6,3.1,29.88,NNE,22,3.8,8.9,65,0.00,,,0.00,WUHU21623XXSP,2013-02-17 10:31:00,
2013-02-17 05:36:00,12.6,3.1,29.88,NNE,24,2.4,8.9,65,0.00,,,0.00,WUHU21623XXSP,2013-02-17 10:36:00,
2013-02-17 05:41:00,12.6,3.1,29.88,NNE,15,4.1,5.4,65,0.00,,,0.00,WUHU21623XXSP,2013-02-17 10:41:00,
2013-02-17 05:46:00,12.6,3.1,29.88,NNE,22,7.6,7.6,65,0.00,,,0.00,WUHU21623XXSP,2013-02-17 10:46:00,
2013-02-17 05:51:00,12.3,2.8,29.88,NNE,12,3.6,7.6,65,0.00,,,0.00,WUHU21623XXSP,2013-02-17 10:51:00,
2013-02-17 05:56:00,12.3,2.8,29.88,NNE,22,5.4,6.0,65,0.00,,,0.00,WUHU21623XXSP,2013-02-17 10:56:00,
2013-02-17 06:01:00,12.3,2.8,29.88,North,4,4.3,7.4,65,0.00,,,0.00,WUHU21623XXSP,2013-02-17 11:01:00,
2013-02-17 06:06:00,12.1,2.6,29.88,NNE,23,4.5,7.4,65,0.00,,,0.00,WUHU21623XXSP,2013-02-17 11:06:00,
2013-02-17 06:11:00,12.1,2.6,29.88,NNE,24,5.3,7.2,65,0.00,,,0.00,WUHU21623XXSP,2013-02-17 11:11:00,
2013-02-17 06:16:00,12.1,2.3,29.88,North,0,3.4,7.2,64,0.00,,,0.00,WUHU21623XXSP,2013-02-17 11:16:00,
2013-02-17 06:21:00,12.1,2.3,29.89,North,0,4.5,7.6,64,0.00,,,0.00,WUHU21623XXSP,2013-02-17 11:21:00,
2013-02-17 06:26:00,11.9,2.1,29.89,North,11,4.1,7.6,64,0.00,,,0.00,WUHU21623XXSP,2013-02-17 11:26:00,
2013-02-17 06:31:00,11.7,1.9,29.89,NNE,21,4.2,7.2,64,0.00,,,0.00,WUHU21623XXSP,2013-02-17 11:31:00,
2013-02-17 06:36:00,11.6,1.8,29.89,North,8,3.8,6.0,64,0.00,,,0.00,WUHU21623XXSP,2013-02-17 11:36:00,
2013-02-17 06:41:00,11.2,1.4,29.89,North,0,6.0,7.6,64,0.00,,,0.00,WUHU21623XXSP,2013-02-17 11:41:00,
2013-02-17 06:46:00,11.0,1.2,29.89,NNE,13,4.2,8.1,64,0.00,,,0.00,WUHU21623XXSP,2013-02-17 11:46:00,
2013-02-17 06:51:00,10.7,1.0,29.89,North,0,5.1,8.1,64,0.00,,,0.00,WUHU21623XXSP,2013-02-17 11:51:00,
2013-02-17 06:56:00,10.5,0.8,29.89,NNE,18,2.7,6.5,64,0.00,,,0.00,WUHU21623XXSP,2013-02-17 11:56:00,
2013-02-17 07:01:00,10.3,0.6,29.89,NNE,22,3.4,6.7,64,0.00,,,0.00,WUHU21623XXSP,2013-02-17 12:01:00,
2013-02-17 07:06:00,10.1,0.4,29.89,NNW,337,2.5,6.7,64,0.00,,,0.00,WUHU21623XXSP,2013-02-17 12:06:00,
2013-02-17 07:11:00,10.1,0.7,29.89,North,0,4.9,6.5,65,0.00,,,0.00,WUHU21623XXSP,2013-02-17 12:11:00,
2013-02-17 07:16:00,10.1,0.7,29.89,North,6,2.8,6.5,65,0.00,,,0.00,WUHU21623XXSP,2013-02-17 12:16:00,
2013-02-17 07:21:00,10.1,0.7,29.89,NNE,16,4.2,7.2,65,0.00,,,0.00,WUHU21623XXSP,2013-02-17 12:21:00,
2013-02-17 07:26:00,10.1,0.7,29.89,NNW,342,2.8,7.2,65,0.00,,,0.00,WUHU21623XXSP,2013-02-17 12:26:00,
2013-02-17 07:31:00,10.1,0.7,29.89,North,0,2.9,5.6,65,0.00,,,0.00,WUHU21623XXSP,2013-02-17 12:31:00,
2013-02-17 07:36:00,10.1,0.7,29.89,North,7,3.2,6.0,65,0.00,,,0.00,WUHU21623XXSP,2013-02-17 12:36:00,
2013-02-17 07:41:00,9.9,0.5,29.89,NNW,343,3.9,7.2,65,0.00,,,0.00,WUHU21623XXSP,2013-02-17 12:41:00,
2013-02-17 07:46:00,9.9,0.5,29.89,NNW,337,5.4,7.2,65,0.00,,,0.00,WUHU21623XXSP,2013-02-17 12:46:00,
2013-02-17 07:51:00,10.1,0.7,29.89,NNW,337,4.5,8.1,65,0.00,,,0.00,WUHU21623XXSP,2013-02-17 12:51:00,
2013-02-17 07:56:00,10.1,0.4,29.89,NNW,344,5.2,8.3,64,0.00,,,0.00,WUHU21623XXSP,2013-02-17 12:56:00,
2013-02-17 08:01:00,10.3,0.6,29.90,North,0,6.5,8.5,64,0.00,,,0.00,WUHU21623XXSP,2013-02-17 13:01:00,
2013-02-17 08:06:00,10.7,1.0,29.90,NNE,23,7.0,9.8,64,0.00,,,0.00,WUHU21623XXSP,2013-02-17 13:06:00,
2013-02-17 08:11:00,10.8,1.1,29.90,NNE,14,6.4,9.8,64,0.00,,,0.00,WUHU21623XXSP,2013-02-17 13:11:00,
2013-02-17 08:16:00,10.8,1.1,29.91,North,0,6.0,9.6,64,0.00,,,0.00,WUHU21623XXSP,2013-02-17 13:16:00,
2013-02-17 08:21:00,11.0,1.2,29.91,NNE,24,6.8,9.8,64,0.00,,,0.00,WUHU21623XXSP,2013-02-17 13:21:00,
2013-02-17 08:26:00,11.6,1.8,29.90,NNE,22,6.3,9.8,64,0.00,,,0.00,WUHU21623XXSP,2013-02-17 13:26:00,
2013-02-17 08:31:00,11.7,1.9,29.91,North,6,4.8,7.6,64,0.00,,,0.00,WUHU21623XXSP,2013-02-17 13:31:00,
2013-02-17 08:37:00,12.3,2.5,29.91,NNE,23,6.6,8.3,64,0.00,,,0.00,WUHU21623XXSP,2013-02-17 13:37:00,
2013-02-17 08:42:00,12.6,2.8,29.91,NNW,337,7.6,12.1,64,0.00,,,0.00,WUHU21623XXSP,2013-02-17 13:42:00,
2013-02-17 08:47:00,12.8,3.0,29.91,North,0,5.1,12.1,64,0.00,,,0.00,WUHU21623XXSP,2013-02-17 13:47:00,
2013-02-17 08:52:00,13.5,3.6,29.91,NNE,22,6.7,8.7,64,0.00,,,0.00,WUHU21623XXSP,2013-02-17 13:52:00,
2013-02-17 08:57:00,13.9,4.0,29.91,North,357,6.1,12.3,64,0.00,,,0.00,WUHU21623XXSP,2013-02-17 13:57:00,
2013-02-17 09:02:00,13.7,3.5,29.90,NNE,16,5.7,12.3,63,0.00,,,0.00,WUHU21623XXSP,2013-02-17 14:02:00,
2013-02-17 09:07:00,13.7,3.5,29.90,North,353,4.6,9.2,63,0.00,,,0.00,WUHU21623XXSP,2013-02-17 14:07:00,
2013-02-17 09:12:00,13.7,3.8,29.90,NNE,17,5.0,9.2,64,0.00,,,0.00,WUHU21623XXSP,2013-02-17 14:12:00,
2013-02-17 09:17:00,14.3,4.4,29.90,North,2,6.7,9.2,64,0.00,,,0.00,WUHU21623XXSP,2013-02-17 14:17:00,
2013-02-17 09:22:00,14.4,4.5,29.91,North,349,6.8,11.9,64,0.00,,,0.00,WUHU21623XXSP,2013-02-17 14:22:00,
2013-02-17 09:27:00,14.6,4.3,29.91,NNW,346,6.8,11.9,63,0.00,,,0.00,WUHU21623XXSP,2013-02-17 14:27:00,
2013-02-17 09:32:00,14.6,4.3,29.91,North,0,7.2,10.7,63,0.00,,,0.00,WUHU21623XXSP,2013-02-17 14:32:00,
2013-02-17 09:37:00,14.8,4.5,29.91,North,0,8.3,10.7,63,0.00,,,0.00,WUHU21623XXSP,2013-02-17 14:37:00,
2013-02-17 09:42:00,15.2,4.9,29.91,NNW,343,4.6,9.8,63,0.00,,,0.00,WUHU21623XXSP,2013-02-17 14:42:00,
2013-02-17 09:47:00,15.3,5.0,29.91,NNE,22,12.1,12.1,63,0.00,,,0.00,WUHU21623XXSP,2013-02-17 14:47:00,
2013-02-17 09:52:00,15.5,5.2,29.92,North,0,6.9,12.1,63,0.00,,,0.00,WUHU21623XXSP,2013-02-17 14:52:00,
2013-02-17 09:57:00,16.2,5.5,29.91,North,10,4.1,11.0,62,0.00,,,0.00,WUHU21623XXSP,2013-02-17 14:57:00,
2013-02-17 10:03:00,16.4,5.7,29.91,North,352,5.5,10.1,62,0.00,,,0.00,WUHU21623XXSP,2013-02-17 15:03:00,
2013-02-17 10:08:00,17.0,6.3,29.91,North,0,5.4,10.1,62,0.00,,,0.00,WUHU21623XXSP,2013-02-17 15:08:00,
2013-02-17 10:13:00,17.3,6.2,29.91,NNW,337,8.1,11.4,61,0.00,,,0.00,WUHU21623XXSP,2013-02-17 15:13:00,
2013-02-17 10:18:00,17.1,6.0,29.91,North,0,11.0,12.1,61,0.00,,,0.00,WUHU21623XXSP,2013-02-17 15:18:00,
2013-02-17 10:23:00,17.3,6.2,29.91,North,0,7.4,13.9,61,0.00,,,0.00,WUHU21623XXSP,2013-02-17 15:23:00,
2013-02-17 10:28:00,17.9,6.4,29.91,NNW,337,8.5,13.9,60,0.00,,,0.00,WUHU21623XXSP,2013-02-17 15:28:00,
2013-02-17 10:33:00,18.0,6.5,29.91,North,349,7.8,11.9,60,0.00,,,0.00,WUHU21623XXSP,2013-02-17 15:33:00,
2013-02-17 10:38:00,18.2,6.3,29.91,North,0,8.1,13.0,59,0.00,,,0.00,WUHU21623XXSP,2013-02-17 15:38:00,
2013-02-17 10:43:00,18.8,6.9,29.91,North,0,6.5,13.0,59,0.00,,,0.00,WUHU21623XXSP,2013-02-17 15:43:00,
2013-02-17 10:48:00,18.8,6.9,29.90,NNE,22,7.6,12.3,59,0.00,,,0.00,WUHU21623XXSP,2013-02-17 15:48:00,
2013-02-17 10:53:00,18.9,7.0,29.91,North,0,8.2,14.1,59,0.00,,,0.00,WUHU21623XXSP,2013-02-17 15:53:00,
2013-02-17 10:58:00,18.6,6.3,29.90,NNE,22,7.6,14.1,58,0.00,,,0.00,WUHU21623XXSP,2013-02-17 15:58:00,
2013-02-17 11:03:00,18.6,6.3,29.91,NNW,332,5.8,11.9,58,0.00,,,0.00,WUHU21623XXSP,2013-02-17 16:03:00,
2013-02-17 11:08:00,19.1,6.8,29.90,NNW,344,7.5,13.0,58,0.00,,,0.00,WUHU21623XXSP,2013-02-17 16:08:00,
2013-02-17 11:13:00,19.5,7.1,29.91,North,355,5.2,13.0,58,0.00,,,0.00,WUHU21623XXSP,2013-02-17 16:13:00,
2013-02-17 11:18:00,19.5,7.1,29.91,NNE,12,7.7,12.3,58,0.00,,,0.00,WUHU21623XXSP,2013-02-17 16:18:00,
2013-02-17 11:23:00,19.1,6.8,29.91,NNW,347,7.3,12.3,58,0.00,,,0.00,WUHU21623XXSP,2013-02-17 16:23:00,
2013-02-17 11:28:00,18.9,6.6,29.91,NNW,337,7.2,13.9,58,0.00,,,0.00,WUHU21623XXSP,2013-02-17 16:28:00,
2013-02-17 11:33:00,19.1,6.8,29.91,North,0,13.4,13.9,58,0.00,,,0.00,WUHU21623XXSP,2013-02-17 16:33:00,
2013-02-17 11:38:00,18.6,6.3,29.91,North,350,6.4,13.4,58,0.00,,,0.00,WUHU21623XXSP,2013-02-17 16:38:00,
2013-02-17 11:44:00,18.2,6.3,29.91,NNW,337,7.8,12.5,59,0.00,,,0.00,WUHU21623XXSP,2013-02-17 16:44:00,
2013-02-17 11:49:00,18.6,6.3,29.90,North,0,11.6,11.6,58,0.00,,,0.00,WUHU21623XXSP,2013-02-17 16:49:00,
2013-02-17 11:54:00,19.3,7.3,29.90,North,0,6.0,11.6,59,0.00,,,0.00,WUHU21623XXSP,2013-02-17 16:54:00,
2013-02-17 11:59:00,19.8,7.4,29.90,North,0,9.6,12.1,58,0.00,,,0.00,WUHU21623XXSP,2013-02-17 16:59:00,
2013-02-17 12:04:00,19.5,7.1,29.90,NNW,341,8.6,14.3,58,0.00,,,0.00,WUHU21623XXSP,2013-02-17 17:04:00,
2013-02-17 12:09:00,19.1,6.8,29.90,NNE,22,9.8,14.3,58,0.00,,,0.00,WUHU21623XXSP,2013-02-17 17:09:00,
2013-02-17 12:14:00,19.1,6.8,29.89,NNW,337,9.2,13.0,58,0.00,,,0.00,WUHU21623XXSP,2013-02-17 17:14:00,
2013-02-17 12:19:00,18.9,6.6,29.89,NNW,342,8.4,15.2,58,0.00,,,0.00,WUHU21623XXSP,2013-02-17 17:19:00,
2013-02-17 12:24:00,18.9,6.6,29.89,NW,323,5.5,15.2,58,0.00,,,0.00,WUHU21623XXSP,2013-02-17 17:24:00,
2013-02-17 12:29:00,20.0,7.2,29.89,WNW,292,6.5,9.6,57,0.00,,,0.00,WUHU21623XXSP,2013-02-17 17:29:00,
2013-02-17 12:34:00,20.6,7.8,29.89,North,0,10.3,10.3,57,0.00,,,0.00,WUHU21623XXSP,2013-02-17 17:34:00,
2013-02-17 12:39:00,19.8,7.0,29.89,NNW,342,7.1,14.5,57,0.00,,,0.00,WUHU21623XXSP,2013-02-17 17:39:00,
2013-02-17 12:44:00,18.6,5.9,29.89,NNW,331,6.5,14.5,57,0.00,,,0.00,WUHU21623XXSP,2013-02-17 17:44:00,
2013-02-17 12:49:00,18.6,6.3,29.89,NNW,330,6.4,13.4,58,0.00,,,0.00,WUHU21623XXSP,2013-02-17 17:49:00,
2013-02-17 12:54:00,18.2,5.5,29.89,North,0,11.2,15.2,57,0.00,,,0.00,WUHU21623XXSP,2013-02-17 17:54:00,
2013-02-17 12:59:00,18.9,6.2,29.89,NNW,327,8.0,15.2,57,0.00,,,0.00,WUHU21623XXSP,2013-02-17 17:59:00,
2013-02-17 13:04:00,20.0,6.8,29.89,NNW,337,9.4,13.2,56,0.00,,,0.00,WUHU21623XXSP,2013-02-17 18:04:00,
2013-02-17 13:09:00,20.7,7.1,29.89,NNW,337,10.1,12.3,55,0.00,,,0.00,WUHU21623XXSP,2013-02-17 18:09:00,
2013-02-17 13:14:00,20.7,7.1,29.89,NNW,337,6.3,12.3,55,0.00,,,0.00,WUHU21623XXSP,2013-02-17 18:14:00,
2013-02-17 13:19:00,19.8,5.8,29.89,NW,315,9.8,11.4,54,0.00,,,0.00,WUHU21623XXSP,2013-02-17 18:19:00,
2013-02-17 13:25:00,19.8,5.8,29.89,NW,315,5.8,11.4,54,0.00,,,0.00,WUHU21623XXSP,2013-02-17 18:25:00,
2013-02-17 13:30:00,20.0,6.0,29.89,NNW,337,12.1,12.1,54,0.00,,,0.00,WUHU21623XXSP,2013-02-17 18:30:00,
2013-02-17 13:35:00,19.3,4.9,29.89,NNW,338,7.1,12.1,53,0.00,,,0.00,WUHU21623XXSP,2013-02-17 18:35:00,
2013-02-17 13:40:00,18.9,4.5,29.89,NNW,330,5.2,11.6,53,0.00,,,0.00,WUHU21623XXSP,2013-02-17 18:40:00,
2013-02-17 13:45:00,19.7,5.7,29.89,NW,321,5.8,10.7,54,0.00,,,0.00,WUHU21623XXSP,2013-02-17 18:45:00,
2013-02-17 13:50:00,19.5,5.5,29.89,NNW,339,9.7,15.4,54,0.00,,,0.00,WUHU21623XXSP,2013-02-17 18:50:00,
2013-02-17 13:55:00,18.6,4.3,29.90,NNW,338,9.4,15.4,53,0.00,,,0.00,WUHU21623XXSP,2013-02-17 18:55:00,
2013-02-17 14:00:00,18.2,3.9,29.90,NNE,22,13.0,15.0,53,0.00,,,0.00,WUHU21623XXSP,2013-02-17 19:00:00,
2013-02-17 14:05:00,18.0,3.7,29.90,NW,315,8.5,13.2,53,0.00,,,0.00,WUHU21623XXSP,2013-02-17 19:05:00,
2013-02-17 14:10:00,18.2,3.9,29.90,NW,315,9.4,13.2,53,0.00,,,0.00,WUHU21623XXSP,2013-02-17 19:10:00,
2013-02-17 14:15:00,18.2,3.9,29.90,WNW,292,8.1,11.9,53,0.00,,,0.00,WUHU21623XXSP,2013-02-17 19:15:00,
2013-02-17 14:20:00,18.0,3.7,29.90,NNW,348,7.3,11.9,53,0.00,,,0.00,WUHU21623XXSP,2013-02-17 19:20:00,
2013-02-17 14:25:00,17.9,4.0,29.90,North,357,7.4,11.2,54,0.00,,,0.00,WUHU21623XXSP,2013-02-17 19:25:00,
2013-02-17 14:30:00,17.7,4.3,29.90,NNW,337,9.6,12.1,55,0.00,,,0.00,WUHU21623XXSP,2013-02-17 19:30:00,
2013-02-17 14:35:00,17.5,4.1,29.90,NNW,340,5.4,13.6,55,0.00,,,0.00,WUHU21623XXSP,2013-02-17 19:35:00,
2013-02-17 14:40:00,17.7,4.3,29.90,NW,321,4.4,13.6,55,0.00,,,0.00,WUHU21623XXSP,2013-02-17 19:40:00,
2013-02-17 14:46:00,17.5,4.9,29.91,NNW,337,6.3,12.1,57,0.00,,,0.00,WUHU21623XXSP,2013-02-17 19:46:00,
2013-02-17 14:51:00,16.8,5.0,29.91,NNW,337,9.6,12.1,59,0.00,,,0.00,WUHU21623XXSP,2013-02-17 19:51:00,
2013-02-17 14:56:00,16.8,5.3,29.92,NW,315,6.3,9.6,60,0.00,,,0.00,WUHU21623XXSP,2013-02-17 19:56:00,
2013-02-17 15:01:00,17.3,6.2,29.92,NW,321,4.7,9.4,61,0.00,,,0.00,WUHU21623XXSP,2013-02-17 20:01:00,
2013-02-17 15:06:00,17.5,5.2,29.92,NW,314,6.4,10.7,58,0.00,,,0.00,WUHU21623XXSP,2013-02-17 20:06:00,
2013-02-17 15:11:00,17.3,4.7,29.92,NW,315,9.6,12.1,57,0.00,,,0.00,WUHU21623XXSP,2013-02-17 20:11:00,
2013-02-17 15:16:00,16.4,3.4,29.92,NNW,337,7.1,16.3,56,0.00,,,0.00,WUHU21623XXSP,2013-02-17 20:16:00,
2013-02-17 15:21:00,16.2,2.8,29.92,North,0,8.9,16.3,55,0.00,,,0.00,WUHU21623XXSP,2013-02-17 20:21:00,
2013-02-17 15:26:00,16.2,2.8,29.93,NNW,329,5.5,10.3,55,0.00,,,0.00,WUHU21623XXSP,2013-02-17 20:26:00,
2013-02-17 15:31:00,16.4,3.0,29.93,North,0,4.5,10.1,55,0.00,,,0.00,WUHU21623XXSP,2013-02-17 20:31:00,
2013-02-17 15:36:00,16.4,3.0,29.94,NW,315,5.4,10.3,55,0.00,,,0.00,WUHU21623XXSP,2013-02-17 20:36:00,
2013-02-17 15:41:00,16.2,3.2,29.94,WNW,292,7.4,11.4,56,0.00,,,0.00,WUHU21623XXSP,2013-02-17 20:41:00,
2013-02-17 15:46:00,15.7,3.2,29.94,NNW,340,6.1,12.5,57,0.00,,,0.00,WUHU21623XXSP,2013-02-17 20:46:00,
2013-02-17 15:51:00,15.2,3.5,29.94,NW,320,5.2,12.5,59,0.00,,,0.00,WUHU21623XXSP,2013-02-17 20:51:00,
2013-02-17 15:56:00,14.6,3.3,29.94,NW,319,5.3,11.6,60,0.00,,,0.00,WUHU21623XXSP,2013-02-17 20:56:00,
2013-02-17 16:01:00,13.9,2.6,29.94,NW,315,9.2,13.0,60,0.00,,,0.00,WUHU21623XXSP,2013-02-17 21:01:00,
2013-02-17 16:06:00,13.7,2.8,29.94,North,0,3.8,13.0,61,0.00,,,0.00,WUHU21623XXSP,2013-02-17 21:06:00,
2013-02-17 16:11:00,13.7,2.8,29.94,NNW,337,9.8,9.8,61,0.00,,,0.00,WUHU21623XXSP,2013-02-17 21:11:00,
2013-02-17 16:16:00,13.9,3.0,29.94,NW,315,5.1,17.2,61,0.00,,,0.00,WUHU21623XXSP,2013-02-17 21:16:00,
2013-02-17 16:21:00,13.9,3.0,29.94,North,0,8.9,17.2,61,0.00,,,0.00,WUHU21623XXSP,2013-02-17 21:21:00,
2013-02-17 16:26:00,13.5,2.6,29.95,NW,317,5.2,10.7,61,0.00,,,0.00,WUHU21623XXSP,2013-02-17 21:26:00,
2013-02-17 16:31:00,13.2,1.9,29.95,NW,319,4.8,10.7,60,0.00,,,0.00,WUHU21623XXSP,2013-02-17 21:31:00,
2013-02-17 16:36:00,13.2,2.3,29.95,NNW,338,4.3,7.6,61,0.00,,,0.00,WUHU21623XXSP,2013-02-17 21:36:00,
2013-02-17 16:41:00,13.4,2.5,29.95,NW,315,4.5,10.7,61,0.00,,,0.00,WUHU21623XXSP,2013-02-17 21:41:00,
2013-02-17 16:46:00,12.8,1.9,29.95,NW,318,3.4,10.7,61,0.00,,,0.00,WUHU21623XXSP,2013-02-17 21:46:00,
2013-02-17 16:51:00,12.6,1.7,29.95,WNW,291,5.5,14.3,61,0.00,,,0.00,WUHU21623XXSP,2013-02-17 21:51:00,
2013-02-17 16:56:00,12.3,1.8,29.95,NNW,337,5.1,14.3,62,0.00,,,0.00,WUHU21623XXSP,2013-02-17 21:56:00,
2013-02-17 17:01:00,11.9,1.4,29.95,West,270,4.7,9.8,62,0.00,,,0.00,WUHU21623XXSP,2013-02-17 22:01:00,
2013-02-17 17:06:00,11.7,1.6,29.96,WNW,302,3.8,11.0,63,0.00,,,0.00,WUHU21623XXSP,2013-02-17 22:06:00,
2013-02-17 17:11:00,11.0,0.9,29.96,WNW,292,4.9,11.0,63,0.00,,,0.00,WUHU21623XXSP,2013-02-17 22:11:00,
2013-02-17 17:16:00,10.8,0.7,29.95,NW,324,4.8,10.3,63,0.00,,,0.00,WUHU21623XXSP,2013-02-17 22:16:00,
2013-02-17 17:21:00,10.7,0.6,29.96,NW,310,5.0,9.6,63,0.00,,,0.00,WUHU21623XXSP,2013-02-17 22:21:00,
2013-02-17 17:26:00,10.5,0.4,29.96,WNW,292,5.4,9.6,63,0.00,,,0.00,WUHU21623XXSP,2013-02-17 22:26:00,
2013-02-17 17:31:00,10.1,0.4,29.96,NW,315,7.2,10.7,64,0.00,,,0.00,WUHU21623XXSP,2013-02-17 22:31:00,
2013-02-17 17:36:00,10.1,0.7,29.97,NW,307,4.6,10.7,65,0.00,,,0.00,WUHU21623XXSP,2013-02-17 22:36:00,
2013-02-17 17:41:00,9.8,0.4,29.97,WNW,292,6.9,8.9,65,0.00,,,0.00,WUHU21623XXSP,2013-02-17 22:41:00,
2013-02-17 17:46:00,9.6,0.2,29.97,NW,324,5.3,11.9,65,0.00,,,0.00,WUHU21623XXSP,2013-02-17 22:46:00,
2013-02-17 17:51:00,9.6,0.2,29.97,WNW,301,4.1,11.9,65,0.00,,,0.00,WUHU21623XXSP,2013-02-17 22:51:00,
2013-02-17 17:56:00,9.2,0.2,29.97,WNW,292,4.3,7.4,66,0.00,,,0.00,WUHU21623XXSP,2013-02-17 22:56:00,
2013-02-17 18:01:00,9.2,0.2,29.98,NW,320,4.5,10.1,66,0.00,,,0.00,WUHU21623XXSP,2013-02-17 23:01:00,
2013-02-17 18:06:00,9.2,0.2,29.98,WSW,247,6.5,10.1,66,0.00,,,0.00,WUHU21623XXSP,2013-02-17 23:06:00,
2013-02-17 18:11:00,9.2,0.5,29.98,NW,315,4.1,9.2,67,0.00,,,0.00,WUHU21623XXSP,2013-02-17 23:11:00,
2013-02-17 18:16:00,9.2,0.5,29.98,NW,318,4.1,11.4,67,0.00,,,0.00,WUHU21623XXSP,2013-02-17 23:16:00,
2013-02-17 18:21:00,9.4,1.0,29.98,NW,315,6.5,11.4,68,0.00,,,0.00,WUHU21623XXSP,2013-02-17 23:21:00,
2013-02-17 18:26:00,9.6,1.2,29.98,WNW,292,5.8,10.1,68,0.00,,,0.00,WUHU21623XXSP,2013-02-17 23:26:00,
2013-02-17 18:31:00,9.6,1.2,29.98,NW,317,4.8,12.3,68,0.00,,,0.00,WUHU21623XXSP,2013-02-17 23:31:00,
2013-02-17 18:36:00,9.8,1.4,29.98,NNW,327,7.1,15.2,68,0.00,,,0.00,WUHU21623XXSP,2013-02-17 23:36:00,
2013-02-17 18:41:00,9.8,1.4,29.99,NW,315,3.1,15.2,68,0.00,,,0.00,WUHU21623XXSP,2013-02-17 23:41:00,
2013-02-17 18:46:00,9.9,1.8,29.99,NW,306,3.6,11.2,69,0.00,,,0.00,WUHU21623XXSP,2013-02-17 23:46:00,
2013-02-17 18:51:00,9.9,1.8,29.99,NW,315,4.9,12.5,69,0.00,,,0.00,WUHU21623XXSP,2013-02-17 23:51:00,
2013-02-17 18:56:00,10.1,2.0,29.99,NW,316,3.6,12.5,69,0.00,,,0.00,WUHU21623XXSP,2013-02-17 23:56:00,
2013-02-17 19:01:00,10.1,2.0,29.99,NW,313,4.2,9.6,69,0.00,,,0.00,WUHU21623XXSP,2013-02-18 00:01:00,
2013-02-17 19:06:00,10.1,2.0,29.99,West,270,8.3,8.5,69,0.00,,,0.00,WUHU21623XXSP,2013-02-18 00:06:00,
2013-02-17 19:11:00,10.3,2.5,29.99,NW,315,3.4,8.3,70,0.00,,,0.00,WUHU21623XXSP,2013-02-18 00:11:00,
2013-02-17 19:16:00,10.5,2.7,29.99,NW,312,3.2,8.1,70,0.00,,,0.00,WUHU21623XXSP,2013-02-18 00:16:00,
2013-02-17 19:21:00,10.5,2.7,30.00,NW,309,5.1,8.1,70,0.00,,,0.00,WUHU21623XXSP,2013-02-18 00:21:00,
2013-02-17 19:26:00,10.7,3.2,30.00,NW,315,3.8,7.2,71,0.00,,,0.00,WUHU21623XXSP,2013-02-18 00:26:00,
2013-02-17 19:31:00,10.7,3.2,30.00,NW,308,4.9,6.9,71,0.00,,,0.00,WUHU21623XXSP,2013-02-18 00:31:00,
2013-02-17 19:36:00,10.7,3.2,30.00,NW,307,3.3,6.9,71,0.00,,,0.00,WUHU21623XXSP,2013-02-18 00:36:00,
2013-02-17 19:41:00,10.8,3.3,30.01,WNW,299,4.6,7.4,71,0.00,,,0.00,WUHU21623XXSP,2013-02-18 00:41:00,
2013-02-17 19:47:00,10.8,3.3,30.01,WNW,295,4.2,7.4,71,0.00,,,0.00,WUHU21623XXSP,2013-02-18 00:47:00,
2013-02-17 19:52:00,11.0,3.8,30.01,NNW,337,4.0,9.2,72,0.00,,,0.00,WUHU21623XXSP,2013-02-18 00:52:00,
2013-02-17 19:57:00,11.0,3.8,30.01,WNW,292,4.5,9.2,72,0.00,,,0.00,WUHU21623XXSP,2013-02-18 00:57:00,
2013-02-17 20:02:00,11.0,3.8,30.02,NW,319,3.3,7.4,72,0.00,,,0.00,WUHU21623XXSP,2013-02-18 01:02:00,
2013-02-17 20:07:00,11.0,3.8,30.02,NW,319,3.4,7.4,72,0.00,,,0.00,WUHU21623XXSP,2013-02-18 01:07:00,
2013-02-17 20:12:00,11.0,3.8,30.02,NW,312,3.5,8.7,72,0.00,,,0.00,WUHU21623XXSP,2013-02-18 01:12:00,
2013-02-17 20:17:00,11.2,4.0,30.02,NW,320,3.0,8.7,72,0.00,,,0.00,WUHU21623XXSP,2013-02-18 01:17:00,
2013-02-17 20:22:00,11.2,4.0,30.02,NW,313,4.1,7.8,72,0.00,,,0.00,WUHU21623XXSP,2013-02-18 01:22:00,
2013-02-17 20:27:00,11.2,4.0,30.03,NNW,337,6.5,8.5,72,0.00,,,0.00,WUHU21623XXSP,2013-02-18 01:27:00,
2013-02-17 20:32:00,11.4,4.2,30.03,NNW,337,7.8,8.5,72,0.00,,,0.00,WUHU21623XXSP,2013-02-18 01:32:00,
2013-02-17 20:37:00,11.4,4.2,30.03,North,0,5.6,10.3,72,0.00,,,0.00,WUHU21623XXSP,2013-02-18 01:37:00,
2013-02-17 20:42:00,11.4,4.2,30.03,NNW,337,10.1,10.3,72,0.00,,,0.00,WUHU21623XXSP,2013-02-18 01:42:00,
2013-02-17 20:47:00,11.6,4.7,30.03,NNW,328,5.5,10.1,73,0.00,,,0.00,WUHU21623XXSP,2013-02-18 01:47:00,
2013-02-17 20:52:00,11.6,4.7,30.03,NW,315,4.3,9.2,73,0.00,,,0.00,WUHU21623XXSP,2013-02-18 01:52:00,
2013-02-17 20:57:00,11.6,4.7,30.04,NNW,343,3.7,8.5,73,0.00,,,0.00,WUHU21623XXSP,2013-02-18 01:57:00,
2013-02-17 21:02:00,11.6,4.7,30.04,NNW,327,4.3,8.5,73,0.00,,,0.00,WUHU21623XXSP,2013-02-18 02:02:00,
2013-02-17 21:07:00,11.6,4.7,30.04,NNW,337,6.0,8.5,73,0.00,,,0.00,WUHU21623XXSP,2013-02-18 02:07:00,
2013-02-17 21:12:00,11.6,4.7,30.04,NNW,337,5.4,9.2,73,0.00,,,0.00,WUHU21623XXSP,2013-02-18 02:12:00,
2013-02-17 21:17:00,11.6,4.7,30.04,NW,315,5.4,10.3,73,0.00,,,0.00,WUHU21623XXSP,2013-02-18 02:17:00,
2013-02-17 21:22:00,11.6,4.7,30.04,NW,315,5.8,10.7,73,0.00,,,0.00,WUHU21623XXSP,2013-02-18 02:22:00,
2013-02-17 21:27:00,11.6,4.7,30.04,NW,315,5.6,10.7,73,0.00,,,0.00,WUHU21623XXSP,2013-02-18 02:27:00,
2013-02-17 21:32:00,11.6,4.7,30.05,NNW,341,2.4,9.6,73,0.00,,,0.00,WUHU21623XXSP,2013-02-18 02:32:00,
2013-02-17 21:37:00,11.6,4.7,30.05,NW,324,4.9,9.6,73,0.00,,,0.00,WUHU21623XXSP,2013-02-18 02:37:00,
2013-02-17 21:42:00,11.4,4.5,30.05,NW,310,4.7,8.1,73,0.00,,,0.00,WUHU21623XXSP,2013-02-18 02:42:00,
2013-02-17 21:47:00,11.4,4.8,30.05,North,0,7.4,9.8,74,0.00,,,0.00,WUHU21623XXSP,2013-02-18 02:47:00,
2013-02-17 21:52:00,11.4,4.5,30.05,NW,320,4.1,9.8,73,0.00,,,0.00,WUHU21623XXSP,2013-02-18 02:52:00,
2013-02-17 21:57:00,11.2,4.6,30.05,NNW,337,4.9,6.7,74,0.00,,,0.00,WUHU21623XXSP,2013-02-18 02:57:00,
2013-02-17 22:02:00,11.0,4.4,30.05,NNW,336,4.0,7.6,74,0.00,,,0.00,WUHU21623XXSP,2013-02-18 03:02:00,
2013-02-17 22:07:00,11.0,4.4,30.05,NW,326,4.3,7.6,74,0.00,,,0.00,WUHU21623XXSP,2013-02-18 03:07:00,
2013-02-17 22:12:00,11.0,4.4,30.06,North,0,4.3,6.7,74,0.00,,,0.00,WUHU21623XXSP,2013-02-18 03:12:00,
2013-02-17 22:17:00,11.0,4.4,30.06,NW,315,4.9,6.9,74,0.00,,,0.00,WUHU21623XXSP,2013-02-18 03:17:00,
2013-02-17 22:22:00,11.0,4.4,30.05,North,0,5.6,8.1,74,0.00,,,0.00,WUHU21623XXSP,2013-02-18 03:22:00,
2013-02-17 22:27:00,11.0,4.4,30.06,NNW,337,4.5,8.1,74,0.00,,,0.00,WUHU21623XXSP,2013-02-18 03:27:00,
2013-02-17 22:32:00,11.0,4.4,30.06,NW,315,5.8,8.1,74,0.00,,,0.00,WUHU21623XXSP,2013-02-18 03:32:00,
2013-02-17 22:37:00,10.8,4.2,30.06,NW,315,5.4,6.7,74,0.00,,,0.00,WUHU21623XXSP,2013-02-18 03:37:00,
2013-02-17 22:42:00,10.8,4.2,30.06,NW,326,4.6,6.9,74,0.00,,,0.00,WUHU21623XXSP,2013-02-18 03:42:00,
2013-02-17 22:47:00,10.5,3.9,30.07,NNW,328,5.0,8.3,74,0.00,,,0.00,WUHU21623XXSP,2013-02-18 03:47:00,
2013-02-17 22:52:00,10.5,3.9,30.07,NW,322,4.4,8.3,74,0.00,,,0.00,WUHU21623XXSP,2013-02-18 03:52:00,
2013-02-17 22:57:00,10.5,3.9,30.07,West,270,6.7,6.7,74,0.00,,,0.00,WUHU21623XXSP,2013-02-18 03:57:00,
2013-02-17 23:02:00,10.5,3.9,30.07,WNW,302,5.1,6.7,74,0.00,,,0.00,WUHU21623XXSP,2013-02-18 04:02:00,
2013-02-17 23:07:00,10.7,4.1,30.07,NW,315,4.9,7.4,74,0.00,,,0.00,WUHU21623XXSP,2013-02-18 04:07:00,
2013-02-17 23:12:00,10.7,4.1,30.07,NW,325,4.0,8.7,74,0.00,,,0.00,WUHU21623XXSP,2013-02-18 04:12:00,
2013-02-17 23:17:00,10.7,4.4,30.08,NNW,329,4.1,9.2,75,0.00,,,0.00,WUHU21623XXSP,2013-02-18 04:17:00,
2013-02-17 23:22:00,10.8,4.5,30.08,NNW,330,3.5,9.2,75,0.00,,,0.00,WUHU21623XXSP,2013-02-18 04:22:00,
2013-02-17 23:27:00,10.8,4.2,30.08,NW,318,3.8,6.0,74,0.00,,,0.00,WUHU21623XXSP,2013-02-18 04:27:00,
2013-02-17 23:32:00,10.8,4.5,30.08,North,0,4.0,5.6,75,0.00,,,0.00,WUHU21623XXSP,2013-02-18 04:32:00,
2013-02-17 23:37:00,10.8,4.2,30.08,NNW,337,3.1,9.2,74,0.00,,,0.00,WUHU21623XXSP,2013-02-18 04:37:00,
2013-02-17 23:42:00,10.7,4.1,30.08,NNW,340,5.7,9.2,74,0.00,,,0.00,WUHU21623XXSP,2013-02-18 04:42:00,
2013-02-17 23:47:00,10.5,3.9,30.08,NW,315,2.7,8.9,74,0.00,,,0.00,WUHU21623XXSP,2013-02-18 04:47:00,
2013-02-17 23:52:00,10.5,3.9,30.08,NW,326,5.9,8.5,74,0.00,,,0.00,WUHU21623XXSP,2013-02-18 04:52:00,
2013-02-17 23:57:00,10.5,3.9,30.09,NNW,337,5.4,8.5,74,0.00,,,0.00,WUHU21623XXSP,2013-02-18 04:57:00,